ARIANE 4O DEB

基本信息
目录编号:
60247
目录名称:
ARIANE 4O DEB
国际标识:
1998-017J
轨道中心:
EARTH
物体状态:
已陨落(2024-11-06)
发射日期:
1998-03-24 UTC
轨道信息
数据来源: 国际轨道数据
星历时间: 2024-10-29T16:37:55+0800
半长轴: 6861.44km
偏心率: 0.0021322
轨道倾角: 98.768°
近地点辐角: 134.876°
升交点赤经: 314.186°
平近点角: 225.421°
近地点: 468.675km
远地点: 497.935km
周期: 94.272分钟
每日圈数: 15.274954
详细信息
发射场:
FRGUI
轨道高度:
LEO
数据来源:
AOE Integration Group
参考系:
TEME
时间系统:
UTC
历元类型:
SGP4
2D轨道图
3D轨道图
轨道高度分析图
轨道倾角分析图
轨道综合分析图
查看轨道综合分析图